Location: *
(34.8620°S, 39.3380°E)
Time: 19:39:56
(UTC+00:00)

SKYSAT 2 - Pass Details

Date: 03 December 2023
Orbit: 613 x 623 km, 98.3° (Epoch: 01 March)

Event Time Altitude Azimuth Distance (km) Brightness Sun altitude
Exits shadow 19:49:36 41° 182° (S) 920 ? -29.7°
Drops below altitude 10° 19:52:32 10° 189° (S) 2,028 ? -29.9°
Sets 19:54:45 0° 190° (S) 2,942 ? -30.1°
